Location: Unspecified
(0.0000°N, 0.0000°E)
Time: 17:54:14
(UTC+02:00)

Daily predictions for brighter satellites

Satellite Brightness Start Highest point End
(mag) Time Altitude Azimuth Time Altitude Azimuth Time Altitude Azimuth
Cosmos 2322 Rocket 2.4 20:17:03 10° S 20:22:34 51° ESE 20:28:04 10° NNE
Cosmos 921 Rocket 3.8 20:20:43 10° SSW 20:24:51 55° W 20:28:57 10° N
Cosmos 2279 Rocket 4.2 20:19:04 10° N 20:25:14 84° W 20:31:27 10° S
SPOT 3 Rocket 3.6 20:21:18 10° SSE 20:26:25 59° ENE 20:31:29 10° N
CZ-3 Stage 3 1.4 20:26:52 10° SW 20:30:46 34° SSE 20:32:39 10° E
APEX 2.6 20:29:22 10° NNW 20:32:07 79° WSW 20:35:18 10° SSE
Mugunghwa Rocket 4.2 20:26:12 10° WNW 20:32:30 66° SSW 20:38:49 10° SE
Cosmos 1782 Rocket 3.5 20:29:52 10° S 20:34:15 88° E 20:38:35 10° N
SL-16 R/B 2.2 20:28:54 10° S 20:34:32 71° ESE 20:40:09 10° NNE
CZ-4 R/B 3.6 20:31:46 10° SSW 20:35:06 27° WSW 20:38:24 10° NW
ARIANE 5 R/B 0.6 20:33:33 10° W 20:35:53 57° S 20:37:27 13° E
SeaSat 1 2.7 20:36:47 10° NE 20:41:29 46° ESE 20:46:10 10° S
IUS-15 SRM-1 4.4 20:39:37 10° W 20:41:50 36° NNW 20:47:14 10° NE
Ariane H10-3 4.4 12:52:28 10° W 20:44:19 58° S 20:48:02 14° ESE
Meteor 1-20 Rocket 4.5 20:39:00 10° S 20:44:41 75° W 20:50:13 10° N
Cosmos 1812 3.8 20:42:48 10° NNE 20:45:55 23° E 20:49:01 10° SE
Cosmos 1633 2.4 20:42:26 10° S 20:45:59 66° E 20:49:32 10° N
Intercosmos 25 Rocket 4.4 20:43:29 10° NNE 20:46:59 33° E 20:52:05 10° SSE
Cosmos 2026 Rocket 4.0 20:41:25 10° S 20:47:39 75° E 20:53:56 10° N
ISS -3.8 20:44:54 10° NW 20:48:08 77° SW 20:51:18 10° SSE
Cosmos 1378 Rocket 3.8 20:45:49 10° NNE 20:50:00 46° E 20:54:10 10° SSE
Genesis I 3.6 20:49:07 10° NNW 20:53:02 65° WSW 20:56:57 10° SSE
Cosmos 2360 Rocket 2.7 20:50:23 10° S 20:55:27 34° ESE 21:00:29 10° NE
SJ-6B 3.9 20:55:21 19° ESE 20:56:54 25° ENE 21:00:11 10° NNE
Cosmos 2151 Rocket 3.8 20:54:28 10° SSE 20:58:41 44° E 21:02:50 10° NNE
Okean 3 3.4 20:57:41 10° N 21:01:58 86° E 21:06:18 10° S
ATLAS 2AS CENTAUR R/B 3.3 20:57:21 10° SSW 21:04:08 65° WNW 21:11:38 10° NNE
Cosmos 1655 Rocket 3.9 21:00:54 10° S 21:07:08 82° E 21:13:23 10° N
Cosmos 2082 3.8 21:06:17 10° NNW 21:11:58 82° WSW 21:17:38 10° SSE
FREGAT/IRIS 2.4 21:10:44 30° SSE 21:12:02 72° E 21:15:01 10° N
Cosmos 1975 Rocket 3.4 21:08:00 10° NNE 21:12:09 42° E 21:14:00 27° SE
CSL-04 DEB 4.2 21:10:40 10° SSE 21:14:39 87° ENE 21:18:41 10° NNW
Cosmos 2227 Rocket 2.8 21:09:18 10° NNW 21:14:50 58° WSW 21:20:23 10° S
Ariane H10+ 2.6 21:09:16 10° W 21:18:04 78° S 21:19:35 37° ESE
Cosmos 1441 Rocket 3.1 21:16:35 10° N 21:20:16 58° E 21:20:53 50° SE
ARIANE 5 DEB (SYLDA) 3.2 21:18:13 10° WSW 21:20:57 59° SSE 21:22:48 36° ESE
Cosmos 405 Rocket 3.6 21:25:15 10° NNW 21:29:06 52° W 21:33:03 10° S
CZ-4C R/B 3.0 21:22:23 10° NNW 21:30:18 64° ENE 21:34:41 29° SE
Cosmos 1110 Rocket 3.8 21:31:50 10° S 21:37:00 76° ESE 21:42:09 10° NNE
Ariane H10+ 3.4 21:25:57 10° WNW 21:37:49 51° N 21:38:52 41° NE
Okean 1 4.3 21:36:30 10° N 21:38:57 36° N 21:38:57 36° N
ALOS 4.2 21:42:38 10° SSW 21:46:39 28° WSW 21:50:38 10° NW
ARIANE 5 DEB (SYLDA) 2.9 21:46:25 10° W 21:49:37 62° N 21:49:37 62° N
Cosmos 1331 Rocket 3.8 21:45:09 10° SSW 21:50:19 87° WNW 21:55:28 10° NNE
H-2A R/B 3.9 21:51:16 40° WSW 21:51:44 42° W 21:55:21 10° NNW
Ariane H10+ 3.4 21:30:00 10° W 21:54:24 69° N 21:56:54 47° ENE
ARIANE 5 R/B 3.6 21:49:38 10° W 21:53:16 33° WSW 21:53:16 33° WSW
Meteor 2-11 Rocket 4.3 21:56:22 10° N 22:02:25 89° W 22:02:45 81° S
Cosmos 2297 Rocket 4.4 21:59:58 10° WNW 22:04:08 21° WSW 22:08:21 10° SSW
Cosmos 1417 Rocket 4.4 21:59:11 10° N 22:05:31 85° W 22:06:15 72° SSW
Cosmos 2266 Rocket 4.1 21:59:38 10° S 22:05:45 70° W 22:11:45 10° N
Centaur D-1AR AC-39 3.7 22:04:25 10° SW 22:39:09 - ENE 22:08:10 40° S
Cosmos 407 Rocket 4.0 22:04:22 10° NNW 22:09:22 55° W 22:09:22 55° W
Cosmos 1818 4.4 22:11:19 10° SW 22:15:25 44° WSW 22:15:25 44° WSW
Resurs 01 Rocket 4.4 22:31:51 13° NW 22:31:51 13° NW 22:32:26 10° NNW
VEP-3 4.4 22:35:21 10° WNW 23:01:22 47° N 23:01:22 47° N
